When you browse on this site, cookies collect data to enhance your experience and personalize the content and advertising you see.
Visit our Privacy Policy to learn more. By continuing to use the site, you agree to this use of cookies and data.
  • In Czech Republic
  • List of Countries
  • For 7 days
  • Water Temperature
  • Weather Map
  • Weather Widgets
  • user-avatar
    Login

    Hourly Weather Kryndy

    Today, 26 May, Tuesday

    Time Temperature Precipitation Wind Pressure Humidity
    00:00 +9°C° 0 mm 2 mps 763 mmHg 84%
    01:00 +9°C° 0 mm 1 mps 763 mmHg 86%
    02:00 +9°C° 0 mm 1 mps 764 mmHg 85%
    03:00 +9°C° 0 mm 1 mps 764 mmHg 85%
    04:00 +8°C° 0 mm 1 mps 765 mmHg 83%
    05:00 +10°C° 0 mm 1 mps 765 mmHg 79%
    06:00 +10°C° 0 mm 0 mps 765 mmHg 74%
    07:00 +12°C° 0 mm 0 mps 765 mmHg 69%
    08:00 +14°C° 0 mm 1 mps 765 mmHg 64%
    09:00 +15°C° 0 mm 2 mps 765 mmHg 60%
    10:00 +17°C° 0 mm 2 mps 766 mmHg 56%
    11:00 +18°C° 0 mm 2 mps 765 mmHg 54%
    12:00 +18°C° 0 mm 2 mps 765 mmHg 52%
    13:00 +19°C° 0 mm 3 mps 765 mmHg 50%
    14:00 +19°C° 0 mm 3 mps 765 mmHg 49%
    15:00 +19°C° 0 mm 3 mps 765 mmHg 49%
    16:00 +20°C° 0 mm 4 mps 764 mmHg 50%
    17:00 +19°C° 0 mm 4 mps 763 mmHg 56%
    18:00 +19°C° 0 mm 4 mps 763 mmHg 61%
    19:00 +18°C° 0 mm 4 mps 762 mmHg 67%
    20:00 +17°C° 0 mm 4 mps 762 mmHg 70%
    21:00 +14°C° 0 mm 4 mps 762 mmHg 73%
    22:00 +13°C° 0 mm 4 mps 762 mmHg 76%
    23:00 +13°C° 0 mm 5 mps 761 mmHg 76%

    Tomorrow, 27 May, Wednesday

    Time Temperature Precipitation Wind Pressure Humidity
    00:00 +13°C° 0 mm 6 mps 760 mmHg 75%
    01:00 +13°C° 0 mm 6 mps 759 mmHg 75%
    02:00 +12°C° 0.1 mm 5 mps 759 mmHg 78%
    03:00 +12°C° 0.1 mm 3 mps 758 mmHg 82%
    04:00 +12°C° 0.1 mm 2 mps 758 mmHg 85%
    05:00 +12°C° 2.5 mm 4 mps 757 mmHg 86%
    06:00 +11°C° 2.5 mm 6 mps 757 mmHg 86%
    07:00 +12°C° 2.5 mm 8 mps 756 mmHg 86%
    08:00 +13°C° 0.9 mm 8 mps 756 mmHg 83%
    09:00 +16°C° 0.9 mm 8 mps 756 mmHg 80%
    10:00 +17°C° 0.9 mm 8 mps 755 mmHg 78%
    11:00 +20°C° 0 mm 8 mps 755 mmHg 74%
    12:00 +22°C° 0 mm 7 mps 754 mmHg 70%
    13:00 +24°C° 0 mm 6 mps 754 mmHg 67%
    14:00 +26°C° 0 mm 6 mps 754 mmHg 68%
    15:00 +26°C° 0 mm 5 mps 753 mmHg 70%
    16:00 +26°C° 0 mm 5 mps 753 mmHg 71%
    17:00 +26°C° 0.6 mm 4 mps 753 mmHg 75%
    18:00 +26°C° 0.6 mm 4 mps 753 mmHg 79%
    19:00 +25°C° 0.6 mm 3 mps 753 mmHg 83%
    20:00 +22°C° 0.1 mm 4 mps 753 mmHg 86%
    21:00 +20°C° 0.1 mm 5 mps 753 mmHg 90%
    22:00 +16°C° 0.1 mm 6 mps 753 mmHg 94%
    23:00 +16°C° 0 mm 5 mps 754 mmHg 94%

    Day after tomorrow, 28 May, Thursday

    Time Temperature Precipitation Wind Pressure Humidity
    00:00 +15°C° 0 mm 5 mps 754 mmHg 93%
    01:00 +14°C° 0 mm 4 mps 754 mmHg 93%
    02:00 +14°C° 0 mm 4 mps 755 mmHg 92%
    03:00 +13°C° 0 mm 4 mps 755 mmHg 91%
    04:00 +13°C° 0 mm 5 mps 756 mmHg 90%
    05:00 +12°C° 0 mm 5 mps 756 mmHg 89%
    06:00 +12°C° 0 mm 5 mps 756 mmHg 87%
    07:00 +12°C° 0 mm 5 mps 757 mmHg 86%
    08:00 +12°C° 0 mm 4 mps 757 mmHg 83%
    09:00 +13°C° 0 mm 4 mps 757 mmHg 80%
    10:00 +13°C° 0 mm 4 mps 757 mmHg 78%
    11:00 +15°C° 0 mm 4 mps 758 mmHg 73%
    12:00 +17°C° 0 mm 4 mps 758 mmHg 68%
    13:00 +18°C° 0 mm 4 mps 758 mmHg 63%
    14:00 +19°C° 0 mm 4 mps 758 mmHg 61%
    15:00 +19°C° 0 mm 4 mps 758 mmHg 58%
    16:00 +20°C° 0 mm 3 mps 758 mmHg 56%
    17:00 +20°C° 0 mm 3 mps 758 mmHg 61%
    18:00 +19°C° 0 mm 3 mps 758 mmHg 65%
    19:00 +19°C° 0 mm 2 mps 758 mmHg 70%
    20:00 +17°C° 0 mm 2 mps 758 mmHg 74%
    21:00 +16°C° 0 mm 2 mps 758 mmHg 78%
    22:00 +14°C° 0 mm 2 mps 759 mmHg 83%
    23:00 +14°C° 0 mm 2 mps 759 mmHg 84%

    29 May, Friday

    Time Temperature Precipitation Wind Pressure Humidity
    00:00 +13°C° 0 mm 2 mps 759 mmHg 86%
    01:00 +13°C° 0 mm 1 mps 759 mmHg 87%
    02:00 +12°C° 0 mm 1 mps 759 mmHg 88%
    03:00 +12°C° 0 mm 1 mps 759 mmHg 88%
    04:00 +12°C° 0 mm 1 mps 759 mmHg 89%
    05:00 +13°C° 0 mm 1 mps 760 mmHg 85%
    06:00 +14°C° 0 mm 1 mps 760 mmHg 80%
    07:00 +16°C° 0 mm 1 mps 760 mmHg 75%
    08:00 +18°C° 0 mm 1 mps 760 mmHg 68%
    09:00 +20°C° 0 mm 1 mps 760 mmHg 62%
    10:00 +21°C° 0 mm 1 mps 760 mmHg 55%
    11:00 +22°C° 0 mm 1 mps 760 mmHg 52%
    12:00 +23°C° 0 mm 1 mps 759 mmHg 49%
    13:00 +23°C° 0 mm 1 mps 759 mmHg 47%
    14:00 +24°C° 0 mm 1 mps 759 mmHg 46%
    15:00 +24°C° 0 mm 1 mps 759 mmHg 46%
    16:00 +24°C° 0 mm 1 mps 759 mmHg 45%
    17:00 +24°C° 0 mm 1 mps 758 mmHg 50%
    18:00 +23°C° 0 mm 1 mps 758 mmHg 55%
    19:00 +22°C° 0 mm 1 mps 758 mmHg 61%
    20:00 +21°C° 0 mm 1 mps 758 mmHg 63%
    21:00 +19°C° 0 mm 1 mps 758 mmHg 65%
    22:00 +15°C° 0 mm 0 mps 758 mmHg 67%
    23:00 +16°C° 0 mm 1 mps 758 mmHg 69%

    30 May, Saturday

    Time Temperature Precipitation Wind Pressure Humidity
    00:00 +15°C° 0 mm 1 mps 757 mmHg 70%
    01:00 +15°C° 0 mm 1 mps 757 mmHg 72%
    02:00 +14°C° 0 mm 1 mps 757 mmHg 75%
    03:00 +14°C° 0 mm 1 mps 757 mmHg 78%
    04:00 +13°C° 0 mm 1 mps 756 mmHg 82%
    05:00 +14°C° 0 mm 1 mps 756 mmHg 78%
    06:00 +16°C° 0 mm 2 mps 756 mmHg 75%
    07:00 +17°C° 0 mm 2 mps 756 mmHg 71%
    08:00 +19°C° 0 mm 2 mps 756 mmHg 66%
    09:00 +20°C° 0 mm 2 mps 756 mmHg 61%
    10:00 +22°C° 0 mm 3 mps 755 mmHg 56%
    11:00 +24°C° 0 mm 3 mps 755 mmHg 53%
    12:00 +25°C° 0 mm 3 mps 755 mmHg 51%
    13:00 +26°C° 0 mm 3 mps 754 mmHg 48%
    14:00 +26°C° 0 mm 3 mps 754 mmHg 48%
    15:00 +26°C° 0 mm 3 mps 753 mmHg 48%
    16:00 +27°C° 0 mm 2 mps 752 mmHg 48%
    17:00 +26°C° 0 mm 2 mps 752 mmHg 54%
    18:00 +25°C° 0 mm 2 mps 752 mmHg 59%
    19:00 +24°C° 0 mm 2 mps 751 mmHg 65%
    20:00 +23°C° 0 mm 2 mps 751 mmHg 69%
    21:00 +20°C° 0 mm 2 mps 750 mmHg 74%
    22:00 +18°C° 0 mm 2 mps 750 mmHg 78%
    23:00 +17°C° 0 mm 2 mps 750 mmHg 78%

    31 May, Sunday

    Time Temperature Precipitation Wind Pressure Humidity
    00:00 +17°C° 0 mm 2 mps 750 mmHg 79%
    01:00 +16°C° 0 mm 2 mps 750 mmHg 79%
    02:00 +16°C° 0 mm 3 mps 749 mmHg 81%
    03:00 +14°C° 0 mm 4 mps 749 mmHg 83%
    04:00 +14°C° 0 mm 5 mps 749 mmHg 85%
    05:00 +14°C° 0 mm 6 mps 748 mmHg 85%
    06:00 +14°C° 0 mm 6 mps 748 mmHg 85%
    07:00 +12°C° 0 mm 7 mps 748 mmHg 85%
    08:00 +12°C° 0.3 mm 7 mps 748 mmHg 85%
    09:00 +13°C° 0.3 mm 6 mps 748 mmHg 86%
    10:00 +11°C° 0.3 mm 6 mps 748 mmHg 86%
    11:00 +12°C° 0.3 mm 7 mps 747 mmHg 86%
    12:00 +14°C° 0.3 mm 7 mps 747 mmHg 86%
    13:00 +14°C° 0.3 mm 7 mps 747 mmHg 85%
    14:00 +13°C° 0.7 mm 8 mps 747 mmHg 87%
    15:00 +12°C° 0.7 mm 8 mps 747 mmHg 88%
    16:00 +11°C° 0.7 mm 8 mps 746 mmHg 90%
    17:00 +11°C° 1.5 mm 8 mps 746 mmHg 90%
    18:00 +10°C° 1.5 mm 8 mps 746 mmHg 90%
    19:00 +9°C° 1.5 mm 7 mps 746 mmHg 90%
    20:00 +9°C° 0.7 mm 7 mps 746 mmHg 90%
    21:00 +9°C° 0.7 mm 6 mps 747 mmHg 90%
    22:00 +9°C° 0.7 mm 6 mps 747 mmHg 90%
    23:00 +9°C° 0.2 mm 5 mps 747 mmHg 91%
    Show more